Location: Les Jeannots
(43.2262°N, 5.5774°E)
Time: 19:17:51
(UTC+00:00)

PSLV R/B - Pass Details

Date: 05 July 2020
Orbit: 598 x 701 km, 97.9° (Epoch: 12 August)

Event Time Altitude Azimuth Distance (km) Brightness Sun altitude
Rises 23:30:39 0° 21° (NNE) 2,856 8.1 -24.1°
Reaches altitude 10° 23:32:57 10° 29° (NNE) 1,953 6.9 -24.1°
Enters shadow 23:36:35 37° 87° (E) 951 4.4 -24.1°
